EST,Max TemperatureF,Mean TemperatureF,Min TemperatureF,Max Dew PointF,MeanDew PointF,Min DewpointF,Max Humidity, Mean Humidity, Min Humidity, Max Sea Level PressureIn, Mean Sea Level PressureIn, Min Sea Level PressureIn, Max VisibilityMiles, Mean VisibilityMiles, Min VisibilityMiles, Max Wind SpeedMPH, Mean Wind SpeedMPH, Max Gust SpeedMPH,PrecipitationIn, CloudCover, Events, WindDirDegrees
2012-11-1,53,48,44,41,38,36,80,69,56,29.58,29.55,29.51,10,10,10,10,5,,0.00,6,Rain,207
2012-11-2,52,48,44,40,35,31,80,64,50,29.64,29.58,29.55,10,10,10,10,5,,0.00,6,,266
2012-11-3,51,46,43,33,31,29,65,57,46,29.83,29.74,29.63,10,10,10,15,8,23,0.00,5,,315
2012-11-4,50,44,37,31,29,26,67,58,50,29.99,29.91,29.82,10,10,10,16,10,24,0.00,4,,322
2012-11-5,41,36,32,23,18,14,57,48,36,30.17,30.06,29.99,10,10,10,14,9,21,0.00,5,,327
2012-11-6,42,33,24,18,15,10,77,54,27,30.27,30.23,30.17,10,10,10,12,3,,0.00,0,,351
2012-11-7,37,32,27,27,16,9,82,50,31,30.24,30.06,29.84,10,9,2,23,11,34,0.00,7,Snow,11
2012-11-8,39,36,32,36,32,28,93,87,70,29.85,29.75,29.68,10,4,1,20,17,26,0.38,8,Rain-Snow,346
2012-11-9,52,44,37,29,25,18,70,51,26,30.11,29.97,29.82,10,10,10,15,10,25,0.00,3,,319
2012-11-10,53,43,33,30,27,20,85,56,27,30.50,30.31,30.11,10,10,10,14,3,,0.00,1,,318
2012-11-11,61,48,34,43,37,27,81,68,46,30.53,30.47,30.41,10,10,10,14,3,,0.00,4,,180
2012-11-12,66,52,37,56,45,36,93,72,48,30.47,30.39,30.23,10,9,5,14,5,21,0.00,1,,180
2012-11-13,63,50,36,58,43,25,90,78,64,30.47,30.25,30.08,10,9,6,21,10,28,0.20,6,Rain,297
2012-11-14,46,39,30,26,23,19,79,56,34,30.60,30.54,30.48,10,10,10,12,5,,0.00,1,,354
2012-11-15,44,36,28,29,24,22,82,67,43,30.53,30.44,30.35,10,10,10,10,3,,0.00,0,,352
2012-11-16,44,37,30,27,25,22,85,66,43,30.48,30.38,30.34,10,10,10,6,2,,0.00,0,,338
2012-11-17,46,36,26,28,25,22,85,67,41,30.71,30.62,30.48,10,10,8,7,2,,0.00,0,,360
2012-11-18,46,36,26,26,23,20,84,66,42,30.78,30.72,30.68,10,10,9,8,2,,0.00,0,,27
2012-11-19,48,36,25,31,25,21,88,72,46,30.67,30.50,30.30,10,10,10,7,3,,0.00,0,,4
2012-11-20,48,36,25,26,24,21,88,66,37,30.30,30.23,30.18,10,10,9,7,1,,0.00,0,,353
2012-11-21,50,42,33,35,29,24,89,69,49,30.32,30.27,30.21,10,10,8,9,4,,0.00,2,,10
2012-11-22,53,42,30,37,32,28,89,77,50,30.33,30.25,30.16,10,10,8,8,3,,0.00,1,,344
2012-11-23,57,44,30,41,34,28,100,83,45,30.14,29.95,29.65,10,5,0,12,2,,0.00,3,Fog,169
2012-11-24,46,40,32,43,24,14,93,54,31,29.67,29.61,29.54,10,10,10,18,8,33,0.00,5,Rain,275
2012-11-25,37,34,30,21,14,5,64,46,27,29.87,29.77,29.67,10,10,10,16,10,28,0.00,2,,260
2012-11-26,44,35,25,24,20,16,75,58,34,30.27,30.06,29.88,10,10,10,17,4,25,0.00,3,,247
2012-11-27,35,30,24,34,28,18,96,87,72,30.36,30.30,30.24,10,6,1,6,1,,0.00,7,Rain-Snow,154
2012-11-28,37,32,28,28,22,18,85,68,46,30.26,30.21,30.15,10,10,9,12,5,,0.00,5,,356
2012-11-29,43,34,26,25,18,14,78,52,32,30.27,30.20,30.15,10,10,10,16,6,21,0.00,2,,238
2012-11-30,33,28,24,24,5,-11,73,40,16,30.62,30.49,30.27,10,10,10,15,10,22,0.00,5,,352